Location: Eaton Estates
(41.3089°N, 82.0057°W)
Time: 11:57:59
(UTC+00:00)

Cosmos 1400 Rocket - Pass Details

Date: 17 June 2021
Orbit: 521 x 566 km, 81.2° (Epoch: 30 July)

Event Time Altitude Azimuth Distance (km) Brightness Sun altitude
Rises 01:52:29 0° 343° (NNW) 2,663 7.4 -8.2°
Reaches altitude 10° 01:54:42 10° 337° (NNW) 1,767 6.6 -8.5°
Maximum altitude 01:58:22 43° 265° (W) 738 3.9 -9.0°
Drops below altitude 10° 02:02:02 10° 193° (SSW) 1,751 5.1 -9.5°
Enters shadow 02:04:10 - 187° (S) 2,613 5.9 -9.8°
